When you browse on this site, cookies collect data to enhance your experience and personalize the content and advertising you see.
Visit our Privacy Policy to learn more. By continuing to use the site, you agree to this use of cookies and data.
  • în România
  • Lista ţărilor
  • Pe 7 zile
  • Temperatura apei
  • Hartă satelitară
  • Meteo pe hartă
  • Widget-uri
  • user-avatar
    Intrare

    Meteo pe oră la Talsa

    Astăzi, 26 Aprilie, Vineri

    Timp Temperatura Precipitaţii Vânt Presiune Umiditate
    00:00 +14°C° 0 mm 2 m/s 744 mmHg 75%
    01:00 +14°C° 0 mm 2 m/s 745 mmHg 74%
    02:00 +13°C° 0 mm 2 m/s 745 mmHg 72%
    03:00 +13°C° 0 mm 2 m/s 745 mmHg 71%
    04:00 +13°C° 0 mm 2 m/s 746 mmHg 71%
    05:00 +12°C° 0 mm 2 m/s 746 mmHg 71%
    06:00 +12°C° 0 mm 2 m/s 747 mmHg 72%
    07:00 +14°C° 0 mm 2 m/s 747 mmHg 67%
    08:00 +17°C° 0 mm 3 m/s 747 mmHg 63%
    09:00 +19°C° 0 mm 3 m/s 747 mmHg 58%
    10:00 +20°C° 0 mm 2 m/s 747 mmHg 53%
    11:00 +23°C° 0 mm 2 m/s 747 mmHg 48%
    12:00 +24°C° 0 mm 1 m/s 747 mmHg 43%
    13:00 +25°C° 0 mm 1 m/s 746 mmHg 41%
    14:00 +25°C° 0 mm 2 m/s 746 mmHg 39%
    15:00 +26°C° 0 mm 2 m/s 745 mmHg 37%
    16:00 +25°C° 0 mm 2 m/s 745 mmHg 44%
    17:00 +24°C° 0 mm 3 m/s 744 mmHg 50%
    18:00 +22°C° 0 mm 3 m/s 743 mmHg 56%
    19:00 +21°C° 0 mm 3 m/s 743 mmHg 57%
    20:00 +19°C° 0 mm 3 m/s 743 mmHg 59%
    21:00 +18°C° 0 mm 3 m/s 743 mmHg 61%
    22:00 +17°C° 0 mm 4 m/s 742 mmHg 63%
    23:00 +17°C° 0 mm 4 m/s 742 mmHg 64%

    Mâine, 27 Aprilie, Sâmbătă

    Timp Temperatura Precipitaţii Vânt Presiune Umiditate
    00:00 +17°C° 0 mm 4 m/s 742 mmHg 66%
    01:00 +16°C° 0 mm 5 m/s 741 mmHg 64%
    02:00 +16°C° 0 mm 5 m/s 740 mmHg 63%
    03:00 +16°C° 0 mm 6 m/s 739 mmHg 61%
    04:00 +15°C° 1.1 mm 7 m/s 739 mmHg 68%
    05:00 +15°C° 1.1 mm 7 m/s 738 mmHg 75%
    06:00 +13°C° 1.1 mm 8 m/s 738 mmHg 82%
    07:00 +16°C° 0.6 mm 9 m/s 737 mmHg 79%
    08:00 +18°C° 0.6 mm 9 m/s 737 mmHg 77%
    09:00 +21°C° 0.6 mm 10 m/s 737 mmHg 74%
    10:00 +22°C° 0 mm 9 m/s 737 mmHg 70%
    11:00 +24°C° 0 mm 9 m/s 737 mmHg 66%
    12:00 +27°C° 0 mm 8 m/s 737 mmHg 62%
    13:00 +28°C° 0.9 mm 8 m/s 737 mmHg 60%
    14:00 +28°C° 0.9 mm 7 m/s 737 mmHg 59%
    15:00 +28°C° 0.9 mm 7 m/s 737 mmHg 57%
    16:00 +26°C° 0 mm 6 m/s 737 mmHg 57%
    17:00 +25°C° 0 mm 5 m/s 738 mmHg 58%
    18:00 +22°C° 0 mm 4 m/s 738 mmHg 59%
    19:00 +20°C° 0 mm 5 m/s 739 mmHg 59%
    20:00 +19°C° 0 mm 5 m/s 739 mmHg 60%
    21:00 +17°C° 0 mm 5 m/s 740 mmHg 60%
    22:00 +15°C° 0 mm 5 m/s 740 mmHg 60%
    23:00 +14°C° 0 mm 5 m/s 741 mmHg 61%

    Poimâine, 28 Aprilie, Duminică

    Timp Temperatura Precipitaţii Vânt Presiune Umiditate
    00:00 +13°C° 0 mm 5 m/s 741 mmHg 61%
    01:00 +12°C° 0 mm 5 m/s 741 mmHg 62%
    02:00 +12°C° 0 mm 5 m/s 741 mmHg 63%
    03:00 +10°C° 0 mm 5 m/s 741 mmHg 64%
    04:00 +9°C° 0.1 mm 5 m/s 741 mmHg 66%
    05:00 +10°C° 0.1 mm 4 m/s 741 mmHg 68%
    06:00 +8°C° 0.1 mm 4 m/s 742 mmHg 70%
    07:00 +9°C° 0.3 mm 5 m/s 742 mmHg 71%
    08:00 +9°C° 0.3 mm 5 m/s 742 mmHg 72%
    09:00 +10°C° 0.3 mm 5 m/s 742 mmHg 73%
    10:00 +13°C° 0 mm 5 m/s 741 mmHg 74%
    11:00 +16°C° 0 mm 6 m/s 741 mmHg 75%
    12:00 +19°C° 0 mm 6 m/s 740 mmHg 77%
    13:00 +19°C° 0.1 mm 6 m/s 740 mmHg 80%
    14:00 +20°C° 0.1 mm 5 m/s 739 mmHg 83%
    15:00 +20°C° 0.1 mm 5 m/s 738 mmHg 87%
    16:00 +20°C° 0.2 mm 5 m/s 738 mmHg 88%
    17:00 +20°C° 0.2 mm 5 m/s 738 mmHg 90%
    18:00 +20°C° 0.2 mm 6 m/s 737 mmHg 91%
    19:00 +20°C° 0.2 mm 6 m/s 737 mmHg 90%
    20:00 +21°C° 0.2 mm 7 m/s 737 mmHg 90%
    21:00 +21°C° 0.2 mm 8 m/s 737 mmHg 89%
    22:00 +21°C° 0.2 mm 8 m/s 737 mmHg 89%
    23:00 +21°C° 0.2 mm 8 m/s 737 mmHg 89%

    29 Aprilie, Luni

    Timp Temperatura Precipitaţii Vânt Presiune Umiditate
    00:00 +21°C° 0.2 mm 8 m/s 736 mmHg 89%
    01:00 +20°C° 0.2 mm 8 m/s 736 mmHg 89%
    02:00 +20°C° 0.2 mm 8 m/s 736 mmHg 90%
    03:00 +20°C° 0.2 mm 8 m/s 736 mmHg 90%
    04:00 +20°C° 0.3 mm 7 m/s 736 mmHg 90%
    05:00 +18°C° 0.3 mm 7 m/s 737 mmHg 90%
    06:00 +19°C° 0.3 mm 6 m/s 737 mmHg 89%
    07:00 +20°C° 0 mm 6 m/s 738 mmHg 85%
    08:00 +21°C° 0 mm 6 m/s 738 mmHg 81%
    09:00 +23°C° 0 mm 6 m/s 739 mmHg 76%
    10:00 +23°C° 0 mm 6 m/s 739 mmHg 77%
    11:00 +25°C° 0 mm 5 m/s 740 mmHg 77%
    12:00 +25°C° 0 mm 4 m/s 740 mmHg 77%
    13:00 +25°C° 0 mm 4 m/s 740 mmHg 78%
    14:00 +25°C° 0 mm 4 m/s 740 mmHg 79%
    15:00 +25°C° 0 mm 4 m/s 740 mmHg 79%
    16:00 +25°C° 0.1 mm 4 m/s 740 mmHg 81%
    17:00 +25°C° 0.1 mm 3 m/s 740 mmHg 82%
    18:00 +25°C° 0.1 mm 3 m/s 740 mmHg 83%
    19:00 +23°C° 2 mm 4 m/s 741 mmHg 86%
    20:00 +22°C° 2 mm 4 m/s 741 mmHg 89%
    21:00 +21°C° 2 mm 5 m/s 741 mmHg 91%
    22:00 +21°C° 0.1 mm 5 m/s 741 mmHg 91%
    23:00 +21°C° 0.1 mm 5 m/s 741 mmHg 90%

    30 Aprilie, Marţi

    Timp Temperatura Precipitaţii Vânt Presiune Umiditate
    00:00 +21°C° 0.1 mm 6 m/s 741 mmHg 90%
    01:00 +20°C° 0.7 mm 5 m/s 740 mmHg 91%
    02:00 +20°C° 0.7 mm 5 m/s 740 mmHg 92%
    03:00 +20°C° 0.7 mm 4 m/s 740 mmHg 94%
    04:00 +20°C° 4 mm 4 m/s 740 mmHg 95%
    05:00 +20°C° 4 mm 4 m/s 740 mmHg 96%
    06:00 +20°C° 4 mm 4 m/s 740 mmHg 96%
    07:00 +20°C° 1.9 mm 5 m/s 740 mmHg 94%
    08:00 +21°C° 1.9 mm 6 m/s 740 mmHg 91%
    09:00 +22°C° 1.9 mm 7 m/s 740 mmHg 89%
    10:00 +22°C° 2.2 mm 7 m/s 740 mmHg 89%
    11:00 +22°C° 2.2 mm 6 m/s 739 mmHg 89%
    12:00 +23°C° 2.2 mm 6 m/s 739 mmHg 90%
    13:00 +23°C° 1.6 mm 6 m/s 738 mmHg 89%
    14:00 +23°C° 1.6 mm 6 m/s 738 mmHg 89%
    15:00 +23°C° 1.6 mm 7 m/s 737 mmHg 89%
    16:00 +23°C° 6.4 mm 6 m/s 737 mmHg 87%
    17:00 +23°C° 6.4 mm 6 m/s 737 mmHg 86%
    18:00 +23°C° 6.4 mm 6 m/s 737 mmHg 85%
    19:00 +22°C° 2.5 mm 5 m/s 737 mmHg 88%
    20:00 +21°C° 2.5 mm 4 m/s 738 mmHg 91%
    21:00 +20°C° 2.5 mm 3 m/s 738 mmHg 94%
    22:00 +19°C° 0.1 mm 3 m/s 739 mmHg 94%
    23:00 +18°C° 0.1 mm 4 m/s 739 mmHg 94%

    1 Mai, Miercuri

    Timp Temperatura Precipitaţii Vânt Presiune Umiditate
    00:00 +17°C° 0.1 mm 4 m/s 740 mmHg 94%
    01:00 +15°C° 0 mm 4 m/s 740 mmHg 94%
    02:00 +14°C° 0 mm 3 m/s 740 mmHg 95%
    03:00 +13°C° 0 mm 3 m/s 740 mmHg 95%
    04:00 +12°C° 0 mm 3 m/s 741 mmHg 95%
    05:00 +13°C° 0 mm 2 m/s 741 mmHg 95%
    06:00 +13°C° 0 mm 2 m/s 742 mmHg 96%
    07:00 +13°C° 0 mm 3 m/s 742 mmHg 94%
    08:00 +14°C° 0 mm 3 m/s 743 mmHg 92%
    09:00 +16°C° 0 mm 3 m/s 743 mmHg 90%
    10:00 +16°C° 0 mm 3 m/s 743 mmHg 89%
    11:00 +17°C° 0 mm 3 m/s 743 mmHg 88%
    12:00 +17°C° 0 mm 3 m/s 743 mmHg 87%
    13:00 +19°C° 0.1 mm 3 m/s 743 mmHg 84%
    14:00 +20°C° 0.1 mm 2 m/s 742 mmHg 82%
    15:00 +23°C° 0.1 mm 2 m/s 742 mmHg 79%
    16:00 +23°C° 0.1 mm 1 m/s 742 mmHg 82%
    17:00 +23°C° 0.1 mm 1 m/s 742 mmHg 84%
    18:00 +23°C° 0.1 mm 1 m/s 742 mmHg 86%
    19:00 +22°C° 0 mm 1 m/s 742 mmHg 89%
    20:00 +20°C° 0 mm 2 m/s 742 mmHg 92%
    21:00 +19°C° 0 mm 2 m/s 742 mmHg 94%
    22:00 +19°C° 0.4 mm 2 m/s 742 mmHg 95%
    23:00 +19°C° 0.4 mm 3 m/s 741 mmHg 96%
    Arată mai mult